Printer-friendly version

IAU Minor Planet Center

Minor Planet Center

MPEC 2007-E55 : 2007 EA26

The following Minor Planet Electronic Circular may be linked-to from your own Web pages, but must not otherwise be redistributed electronically.


Read MPEC 2007-E54 Read MPEC 2007-E56


M.P.E.C. 2007-E55                                Issued 2007 Mar. 12, 20:44 UT

     The Minor Planet Electronic Circulars contain information on unusual
         minor planets and routine data on comets.  They are published
   on behalf of Commission 20 of the International Astronomical Union by the
          Minor Planet Center, Smithsonian Astrophysical Observatory,
                          Cambridge, MA 02138, U.S.A.

             Prepared using the Tamkin Foundation Computer Network

                              MPC@CFA.HARVARD.EDU
          URL http://cfa-www.harvard.edu/iau/mpc.html  ISSN 1523-6714

                                   2007 EA26

Observations:
     K07E26A* C2007 03 09.42721 12 17 27.38 -01 26 04.6          21.1 V EE055G96
     K07E26A  C2007 03 09.43343 12 17 26.80 -01 26 03.3          22.1 V EE055G96
     K07E26A  C2007 03 09.43962 12 17 26.08 -01 26 02.9          21.8 V EE055G96
     K07E26A  C2007 03 09.44576 12 17 25.47 -01 26 01.1          21.6 V EE055G96
     K07E26A  C2007 03 10.26423 12 16 02.13 -01 23 15.1                 EE055291
     K07E26A  C2007 03 10.26815 12 16 01.68 -01 23 14.2                 EE055291
     K07E26A  C2007 03 10.27204 12 16 01.29 -01 23 13.6                 EE055291
     K07E26A  C2007 03 11.23418 12 14 23.05 -01 19 56.1          20.5 V EE055G96
     K07E26A  C2007 03 11.23655112 14 22.56 -01 19 56.4          21.8   EE055H55
     K07E26A  C2007 03 11.24230812 14 21.92 -01 19 55.5          21.6   EE055H55
     K07E26A  C2007 03 11.24405 12 14 22.00 -01 19 53.4          21.8 V EE055G96
     K07E26A  C2007 03 11.24797112 14 21.34 -01 19 54.6          21.8   EE055H55
     K07E26A  C2007 03 11.25237 12 14 21.11 -01 19 51.7          20.9 V EE055G96
     K07E26A FC2007 03 11.99202 12 13 05.56 -01 17 22.4                 EE055246
     K07E26A FC2007 03 11.99489 12 13 05.24 -01 17 20.2                 EE055246

Observer details:
246 Klet Observatory-KLENOT.  Observers J. Ticha, M. Tichy.  Measurer M. Tichy.
    1.06-m KLENOT Telescope + CCD.
291 LPL/Spacewatch II.  Observer T. H. Bressi.  1.8-m f/2.7 reflector + CCD.
G96 Mt. Lemmon Survey.  Observers E. J. Christensen, R. A. Kowalski.
    Measurers E. C. Beshore, E. J. Christensen, G. J. Garradd, A. R. Gibbs,
    A. D. Grauer, R. E. Hill, R. A. Kowalski, S. M. Larson, R. H. McNaught.
    1.5-m reflector + CCD.
H55 Astronomical Research Observatory, Charleston.  Observer R. Holmes.
    0.81-m f/4.0 astrograph + CCD.

Orbital elements:
2007 EA26                                                Earth MOID = 0.1143 AU
Epoch 2007 Apr. 10.0 TT = JDT 2454200.5                 MPC
M  28.41400              (2000.0)            P               Q
n   0.19701500     Peri.   84.02425     +0.15781719     -0.98744548
a   2.9250717      Node   356.87156     +0.85027113     +0.13934795
e   0.6610931      Incl.    7.07361     +0.50212821     +0.07438804
P   5.00           H   20.0           G   0.15           U   9
Residuals in seconds of arc
070309 G96  0.6-  0.2-    070310 291  0.2-  0.2+    070311 G96  0.2+  0.6+
070309 G96  0.6+  0.2-    070310 291  0.1+  0.0     070311 H55  0.1+  0.3-
070309 G96  0.3-  1.0-    070311 G96  0.4+  0.1-    070311 G96  0.0   0.6+
070309 G96  0.4+  0.4-    070311 H55  0.3+  0.3+    070311 246  0.1+  1.7-
070310 291  0.3+  0.1+    070311 H55  0.2-  0.0     070311 246  0.2-  0.1-

Ephemeris:
2007 EA26                a,e,i = 2.93, 0.66, 7                   q = 0.9913
Date    TT    R. A. (2000) Decl.     Delta      r     Elong.  Phase     V
2007 03 11    12 14.78   -01 20.6    0.770    1.750   166.0     7.9    21.2
2007 03 16    12 06.44   -01 03.0    0.803    1.794   173.0     3.9    21.2
2007 03 21    11 58.63   -00 45.4    0.842    1.838   179.2     0.5    21.0
2007 03 26    11 51.58   -00 29.1    0.888    1.882   173.3     3.6    21.5
2007 03 31    11 45.44   -00 15.2    0.939    1.925   166.8     6.8    21.8

Kyle E. Smalley              (C) Copyright 2007 MPC           M.P.E.C. 2007-E55

Read MPEC 2007-E54 Read MPEC 2007-E56


Our Web policy. Index to the CBAT/MPC/ICQ pages.


Valid HTML 4.01!